LiveATC.Net - Listen to live air traffic control over the Internet!
Airport/ARTCC Code
Frequency Search
(e.g., 124.400, 128.75)
Site-wide search
 


Browse Feeds
Top 50 Feeds
HF Oceanic Feeds
Coverage Map
Bad Weather Areas

LiveATC FAQ

Increase Coverage

Contact LiveATC.net
Press Inquiries

LiveATC on iPhone
LiveATC on Android

LiveATC Mobile
(Mobile browser)

ATC Audio Archives
Interesting Recordings

LiveATC Forums

Home Page
About LiveATC.net


Terms of Use
Privacy Policy

AIRMETs/SIGMETs

FAA Airport Status
NAS Status
Arrival Demand


Server Software By:
Icecast.org
Liquidsoap

Select an area of interest:
U.S. Feeds: Class B Airports | Class C Airports | Class D/Other Airports | ARTCC (Centers)
International Feeds: Canada | Europe | Oceania | Asia | South America | North/Central America | Africa
Misc Feeds: HF Feeds
Search by ICAO/IATA airport code:   (e.g., kbos, kjfk, lax, eham, etc.)


Currently Available Live Feeds: 3248
Status Updated: Tue Apr 23 2024 12:27:38 UTC


NOTICE

Unauthorized use prohibited. See LiveATC.net Terms of Service

Oceania/Pacific Airport Feeds

 

YADG CTAF (Archives)
Sellicks Hill, South Australia, Australia

Feed Status: UP
Listen in your browser - HTML5 player(in browser, HTML5)
Click here to listen with your own player(launches your MP3 player)

YADG Flight Activity (Flightaware)

Listeners: 0 out of 2619 total

Aldinga CTAF: 127.150

YBAF Gnd/Twr (Archives)
Brisbane, Queensland, Australia

Feed Status: UP
Listen in your browser - HTML5 player(in browser, HTML5)
Click here to listen with your own player(launches your MP3 player)

YBAF Flight Activity (Flightaware)

Listeners: 0 out of 2619 total

Archerfield Ground: 119.900
Archerfield Tower (North): 123.600
Archerfield Tower/CTAF (South): 118.100

YBAF Ground (Archives)
Brisbane, Queensland, Australia

Feed Status: UP
Listen in your browser - HTML5 player(in browser, HTML5)
Click here to listen with your own player(launches your MP3 player)

YBAF Flight Activity (Flightaware)

Listeners: 0 out of 2619 total

Archerfield Ground: 119.900

YBAF Tower (North/South) (Archives)
Brisbane, Queensland, Australia

Feed Status: UP
Listen in your browser - HTML5 player(in browser, HTML5)
Click here to listen with your own player(launches your MP3 player)

YBAF Flight Activity (Flightaware)

Listeners: 0 out of 2619 total

Archerfield Tower (North): 123.600
Archerfield Tower/CTAF (South): 118.100

YBAF Tower (South) (Archives)
Brisbane, Queensland, Australia

Feed Status: UP
Listen in your browser - HTML5 player(in browser, HTML5)
Click here to listen with your own player(launches your MP3 player)

YBAF Flight Activity (Flightaware)

Listeners: 0 out of 2619 total

Archerfield Tower/CTAF (South): 118.100

YBAS Tower/Center (Archives)
Alice Springs, Northern Territory, Australia

Feed Status: UP
Listen in your browser - HTML5 player(in browser, HTML5)
Click here to listen with your own player(launches your MP3 player)

YBAS 231130Z AUTO 15005KT 9999 // OVC084 21/11 Q1019 RF00.0/000.0

YBAS Flight Activity (Flightaware)

Listeners: 2 out of 2619 total

Alice Tower/CTAF: 118.300
Melbourne Center (above FL280): 128.850
Melbourne Center (below FL280): 119.800

Brisbane Center (128.6/YSSY) (Archives)
Brisbane, Queensland, Australia

Feed Status: UP
Listen in your browser - HTML5 player(in browser, HTML5)
Click here to listen with your own player(launches your MP3 player)

YSSY 231130Z 01013KT CAVOK 21/16 Q1019

YSSY Flight Activity (Flightaware)

Listeners: 5 out of 2619 total

Brisbane Center: 128.600

Brisbane Center (129.000) (Archives)
Brisbane, Queensland, Australia

Feed Status: UP
Listen in your browser - HTML5 player(in browser, HTML5)
Click here to listen with your own player(launches your MP3 player)

YBBN 231130Z 20005KT 9999 FEW018 SCT030 BKN075 19/18 Q1021 RF00.0/000.0

YBBN Flight Activity (Flightaware)

Listeners: 0 out of 2619 total

Brisbane Center (East of Brisbane): 134.300
Brisbane Center (Mount Glorious): 123.000
Brisbane Center (Mount Glorious): 129.000

YBBN Twr/App/Dep
Brisbane, Queensland, Australia

Feed Status: DOWN
Offline since: 2024-04-23 02:12:39 UTC

YBBN 231130Z 20005KT 9999 FEW018 SCT030 BKN075 19/18 Q1021 RF00.0/000.0

Brisbane Approach: 123.500
Brisbane Approach/Departure (North): 124.700
Brisbane Approach/Departure (South): 125.600
Brisbane Departure: 128.300
Brisbane Departure: 133.450
Brisbane Tower: 120.500

YBCG Approach (Archives)
Gold Coast City, Queensland, Australia

Feed Status: UP
Listen in your browser - HTML5 player(in browser, HTML5)
Click here to listen with your own player(launches your MP3 player)

YBCG 231130Z AUTO 22004KT 9999 // SCT071 19/17 Q1021 RF00.0/000.4

YBCG Flight Activity (Flightaware)

Listeners: 1 out of 2619 total

Brisbane Approach: 123.500

YBCG Area CTAF (Archives)
Gold Coast City, Queensland, Australia

Feed Status: UP
Listen in your browser - HTML5 player(in browser, HTML5)
Click here to listen with your own player(launches your MP3 player)

YBCG 231130Z AUTO 22004KT 9999 // SCT071 19/17 Q1021 RF00.0/000.4

YBCG Flight Activity (Flightaware)

Listeners: 1 out of 2619 total

YBCG Training/YTYH/YMUR : 127.550

YBCG Brisbane Centre (Archives)
Gold Coast City, Queensland, Australia

Feed Status: UP
Listen in your browser - HTML5 player(in browser, HTML5)
Click here to listen with your own player(launches your MP3 player)

YBCG 231130Z AUTO 22004KT 9999 // SCT071 19/17 Q1021 RF00.0/000.4

YBCG Flight Activity (Flightaware)

Listeners: 3 out of 2619 total

Brisbane Centre/Radar: 119.500

YBCG Ground (Archives)
Gold Coast City, Queensland, Australia

Feed Status: UP
Listen in your browser - HTML5 player(in browser, HTML5)
Click here to listen with your own player(launches your MP3 player)

YBCG 231130Z AUTO 22004KT 9999 // SCT071 19/17 Q1021 RF00.0/000.4

YBCG Flight Activity (Flightaware)

Listeners: 1 out of 2619 total

Gold Coast Ground: 121.800

YBCG Ground/Tower (Archives)
Gold Coast City, Queensland, Australia

Feed Status: UP
Listen in your browser - HTML5 player(in browser, HTML5)
Click here to listen with your own player(launches your MP3 player)

YBCG 231130Z AUTO 22004KT 9999 // SCT071 19/17 Q1021 RF00.0/000.4

YBCG Flight Activity (Flightaware)

Listeners: 1 out of 2619 total

Gold Coast Ground: 121.800
Gold Coast Tower: 118.700

YBCG Tower (Archives)
Gold Coast City, Queensland, Australia

Feed Status: UP
Listen in your browser - HTML5 player(in browser, HTML5)
Click here to listen with your own player(launches your MP3 player)

YBCG 231130Z AUTO 22004KT 9999 // SCT071 19/17 Q1021 RF00.0/000.4

YBCG Flight Activity (Flightaware)

Listeners: 1 out of 2619 total

Gold Coast Tower: 118.700

YBCS App/Dep #1 (Archives)
Cairns, Queensland, Australia

Feed Status: UP
Listen in your browser - HTML5 player(in browser, HTML5)
Click here to listen with your own player(launches your MP3 player)

YBCS 231200Z AUTO 17010KT 5000 -SHRA SCT017 BKN024 OVC033 24/23 Q1014

YBCS Flight Activity (Flightaware)

Listeners: 1 out of 2619 total

Cairns Approach/Departure: 118.400

YBCS App/Dep #2 (Archives)
Cairns, Queensland, Australia

Feed Status: UP
Listen in your browser - HTML5 player(in browser, HTML5)
Click here to listen with your own player(launches your MP3 player)

YBCS 231200Z AUTO 17010KT 5000 -SHRA SCT017 BKN024 OVC033 24/23 Q1014

YBCS Flight Activity (Flightaware)

Listeners: 4 out of 2619 total

Cairns Approach/Departure: 126.100

YBCS App/Dep (all) (Archives)
Cairns, Queensland, Australia

Feed Status: UP
Listen in your browser - HTML5 player(in browser, HTML5)
Click here to listen with your own player(launches your MP3 player)

YBCS 231200Z AUTO 17010KT 5000 -SHRA SCT017 BKN024 OVC033 24/23 Q1014

YBCS Flight Activity (Flightaware)

Listeners: 1 out of 2619 total

Cairns Approach/Departure: 126.100
Cairns Approach/Departure: 118.400

YBCS Brisbane Centre (Archives)
Cairns, Queensland, Australia

Feed Status: UP
Listen in your browser - HTML5 player(in browser, HTML5)
Click here to listen with your own player(launches your MP3 player)

YBCS 231200Z AUTO 17010KT 5000 -SHRA SCT017 BKN024 OVC033 24/23 Q1014

YBCS Flight Activity (Flightaware)

Listeners: 3 out of 2619 total

Brisbane Centre: 121.200

YBCS Emergency/Guard (Archives)
Cairns, Queensland, Australia

Feed Status: UP
Listen in your browser - HTML5 player(in browser, HTML5)
Click here to listen with your own player(launches your MP3 player)

YBCS 231200Z AUTO 17010KT 5000 -SHRA SCT017 BKN024 OVC033 24/23 Q1014

YBCS Flight Activity (Flightaware)

Listeners: 1 out of 2619 total

Emergency/Guard: 121.500

YBCS Ground (Archives)
Cairns, Queensland, Australia

Feed Status: UP
Listen in your browser - HTML5 player(in browser, HTML5)
Click here to listen with your own player(launches your MP3 player)

YBCS 231200Z AUTO 17010KT 5000 -SHRA SCT017 BKN024 OVC033 24/23 Q1014

YBCS Flight Activity (Flightaware)

Listeners: 1 out of 2619 total

Cairns Ground: 121.700

YBCS Ground/Tower (Archives)
Cairns, Queensland, Australia

Feed Status: UP
Listen in your browser - HTML5 player(in browser, HTML5)
Click here to listen with your own player(launches your MP3 player)

YBCS 231200Z AUTO 17010KT 5000 -SHRA SCT017 BKN024 OVC033 24/23 Q1014

YBCS Flight Activity (Flightaware)

Listeners: 1 out of 2619 total

Cairns Ground: 121.700
Cairns Tower: 124.900

YBCS Tower (Archives)
Cairns, Queensland, Australia

Feed Status: UP
Listen in your browser - HTML5 player(in browser, HTML5)
Click here to listen with your own player(launches your MP3 player)

YBCS 231200Z AUTO 17010KT 5000 -SHRA SCT017 BKN024 OVC033 24/23 Q1014

YBCS Flight Activity (Flightaware)

Listeners: 3 out of 2619 total

Cairns Tower: 124.900

YBCV CTAF/Brisbane Center (Archives)
Charleville, Queensland, Australia

Feed Status: UP
Listen in your browser - HTML5 player(in browser, HTML5)
Click here to listen with your own player(launches your MP3 player)

YBCV 151208Z AUTO 20005KT 9999 // NCD 19/07 Q1012

YBCV Flight Activity (Flightaware)

Listeners: 3 out of 2619 total

Brisbane Center: 124.800
Charleville CTAF/UNICOM: 126.700

YBDG Center (Archives)
Bendigo, Victoria, Australia

Feed Status: UP
Listen in your browser - HTML5 player(in browser, HTML5)
Click here to listen with your own player(launches your MP3 player)

YBDG Flight Activity (Flightaware)

Listeners: 0 out of 2619 total

Melbourne Center: 126.800

YBDG CTAF (Archives)
Bendigo, Victoria, Australia

Feed Status: UP
Listen in your browser - HTML5 player(in browser, HTML5)
Click here to listen with your own player(launches your MP3 player)

YBDG Flight Activity (Flightaware)

Listeners: 0 out of 2619 total

Bendigo CTAF: 119.300

YBOK Del/Gnd/Twr/App (Archives)
Oakey, Queensland, Australia

Feed Status: UP
Listen in your browser - HTML5 player(in browser, HTML5)
Click here to listen with your own player(launches your MP3 player)

YBOK Flight Activity (Flightaware)

Listeners: 2 out of 2619 total

Brisbane Center/FSS: 121.200
Oakey Approach: 125.400
Oakey Approach: 123.700
Oakey Approach (Final): 135.850
Oakey Clearance Delivery: 133.350
Oakey CTAF (+YTWB/YBWW): 127.650
Oakey Ground: 121.900
Oakey Tower: 120.100

YBSS CTAF
Bacchus Marsh, Victoria, Australia

Feed Status: DOWN
Offline since: 2023-06-18 22:13:40 UTC

Bacchus Marsh CTAF: 118.800

YBSS Glider 122.5
Bacchus Marsh, Victoria, Australia

Feed Status: DOWN
Offline since: 2023-06-21 20:25:06 UTC

Bacchus Marsh Glider Chat: 122.500

YBSS Glider 122.7
Bacchus Marsh, Victoria, Australia

Feed Status: DOWN
Offline since: 2023-06-21 20:25:06 UTC

Bacchus Marsh Glider Chat: 122.700

YBSS Glider 122.9
Bacchus Marsh, Victoria, Australia

Feed Status: DOWN
Offline since: 2023-06-21 17:45:06 UTC

Bacchus Marsh Glider Chat: 122.900

YBTL Approach/Departure (Archives)
Townsville, Queensland, Australia

Feed Status: UP
Listen in your browser - HTML5 player(in browser, HTML5)
Click here to listen with your own player(launches your MP3 player)

YBTL 231130Z 15009KT 9999 FEW025 SCT125 25/19 Q1016 RF00.0/000.0

YBTL Flight Activity (Flightaware)

Listeners: 2 out of 2619 total

Townsville Approach/Departure: 126.800

YBTL ATIS (Archives)
Townsville, Queensland, Australia

Feed Status: UP
Listen in your browser - HTML5 player(in browser, HTML5)
Click here to listen with your own player(launches your MP3 player)

YBTL 231130Z 15009KT 9999 FEW025 SCT125 25/19 Q1016 RF00.0/000.0

YBTL Flight Activity (Flightaware)

Listeners: 1 out of 2619 total

Townsville ATIS: 133.500

YBTL Brisbane Center (Archives)
Townsville, Queensland, Australia

Feed Status: UP
Listen in your browser - HTML5 player(in browser, HTML5)
Click here to listen with your own player(launches your MP3 player)

YBTL 231130Z 15009KT 9999 FEW025 SCT125 25/19 Q1016 RF00.0/000.0

YBTL Flight Activity (Flightaware)

Listeners: 4 out of 2619 total

Brisbane Center: 120.550

YBTL Clearance Delivery (Archives)
Townsville, Queensland, Australia

Feed Status: UP
Listen in your browser - HTML5 player(in browser, HTML5)
Click here to listen with your own player(launches your MP3 player)

YBTL 231130Z 15009KT 9999 FEW025 SCT125 25/19 Q1016 RF00.0/000.0

YBTL Flight Activity (Flightaware)

Listeners: 2 out of 2619 total

Townsville Clearance Delivery: 128.100

YBTL Ground (Archives)
Townsville, Queensland, Australia

Feed Status: UP
Listen in your browser - HTML5 player(in browser, HTML5)
Click here to listen with your own player(launches your MP3 player)

YBTL 231130Z 15009KT 9999 FEW025 SCT125 25/19 Q1016 RF00.0/000.0

YBTL Flight Activity (Flightaware)

Listeners: 1 out of 2619 total

Townsville Ground: 119.450

YBTL Tower (Archives)
Townsville, Queensland, Australia

Feed Status: UP
Listen in your browser - HTML5 player(in browser, HTML5)
Click here to listen with your own player(launches your MP3 player)

YBTL 231130Z 15009KT 9999 FEW025 SCT125 25/19 Q1016 RF00.0/000.0

YBTL Flight Activity (Flightaware)

Listeners: 2 out of 2619 total

Townsville Tower: 118.300

YGAW CTAF (Archives)
Gawler, South Australia, Australia

Feed Status: UP
Listen in your browser - HTML5 player(in browser, HTML5)
Click here to listen with your own player(launches your MP3 player)

METAR NOT AVAILABLE

YGAW Flight Activity (Flightaware)

Listeners: 0 out of 2619 total

Gawler CTAF: 126.550

YGTH AWIS
Griffith, New South Wales, Australia

Feed Status: DOWN
Offline since: 2024-03-13 00:30:06 UTC

YGTH 141229Z AUTO 23016KT 9999 DZ SCT023 BKN028 BKN040 15/14 Q1010

Griffith AWIS Weather: 132.950

YGTH CTAF
Griffith, New South Wales, Australia

Feed Status: DOWN
Offline since: 2024-03-13 00:30:06 UTC

YGTH 141229Z AUTO 23016KT 9999 DZ SCT023 BKN028 BKN040 15/14 Q1010

Griffith CTAF: 126.550

YIVL CTAF/Center (Archives)
Inverell, New South Wales, Australia

Feed Status: UP
Listen in your browser - HTML5 player(in browser, HTML5)
Click here to listen with your own player(launches your MP3 player)

YIVL Flight Activity (Flightaware)

Listeners: 2 out of 2619 total

Brisbane Center: 132.350
Brisbane Center: 127.100
Brisbane Center: 130.900
Brisbane Center (high alt SE Inverell): 130.100
Brisbane Center (high alt): 133.000
Brisbane Center (NE Inverell): 134.200
Brisbane Center (North and East Inverell): 127.200
Brisbane Center (North Inverell high alt): 135.600
Brisbane Center (North Inverell): 121.200
Brisbane Center (SE Inverell): 125.750
Inverell CTAF: 126.700
Tamworth Tower: 119.400

YMAV Del/App (Archives)
Avalon, Victoria, Australia

Feed Status: UP
Listen in your browser - HTML5 player(in browser, HTML5)
Click here to listen with your own player(launches your MP3 player)

YMAV 231130Z AUTO 27014KT 9999 -SHRA SCT075 BKN086 OVC100 15/13 Q1012

YMAV Flight Activity (Flightaware)

Listeners: 6 out of 2619 total

Avalon Clearance Delivery: 120.100
Melbourne Approach/Departure: 133.550

YMHB Twr/Centre/Misc (Archives)
Cambridge, Tasmania, Australia

Feed Status: UP
Listen in your browser - HTML5 player(in browser, HTML5)
Click here to listen with your own player(launches your MP3 player)

YMHB 231130Z 28005KT CAVOK 15/08 Q1007

YMHB Flight Activity (Flightaware)

Listeners: 0 out of 2619 total

Air to Air: 123.450
Area CTAF: 126.700
Fire Operations: 119.100
Helicopter Resources Company: 126.400
Hobart Approach: 125.550
Hobart Tower: 118.100
Jetstar Company: 130.925
Launceston Approach: 123.800
Launceston Tower: 118.700
Melbourne Centre: 126.500
Qantas Company: 129.500
Rotor Lift Company: 131.600
Virgin Company: 130.350

YMML Twr/App/Center (Archives)
Melbourne, Victoria, Australia

Feed Status: UP
Listen in your browser - HTML5 player(in browser, HTML5)
Click here to listen with your own player(launches your MP3 player)

YMML 231154Z 25016G26KT 9999 -RA NSC 16/11 Q1013 RF00.0/000.0 BKN081

YMML Flight Activity (Flightaware)

Listeners: 8 out of 2619 total

Air Ambulance: 132.750
DSE & Other Company: 119.100
Essendon Tower: 125.100
Inter-Pilot: 123.450
Jetstar Company: 130.925
Melbourne ACD: 127.200
Melbourne Approach: 132.000
Melbourne Centre: 130.300
Melbourne Centre: 128.500
Melbourne Centre: 126.800
Melbourne Centre: 125.800
Melbourne Centre: 125.700
Melbourne Centre: 125.200
Melbourne Centre: 123.750
Melbourne Centre: 122.400
Melbourne Departure: 118.900
Melbourne Departure: 129.400
Melbourne Tower: 120.500
Moorabbin Tower (East): 118.100
Moorabbin Tower (West): 123.000
Police Air Wing: 131.600
Qantas Company: 130.850
Qantas Company: 129.500
Rex Company: 126.450
Royal Victorian Aero Club Company: 128.700
Royal Victorian Aero Club Company: 133.400

YPAD Del/Gnd/Twr/App (Archives)
Adelaide, South Australia, Australia

Feed Status: UP
Listen in your browser - HTML5 player(in browser, HTML5)
Click here to listen with your own player(launches your MP3 player)

YPAD 231141Z 21016G28KT 9999 FEW025 SCT031 BKN039 15/07 Q1023

YPAD Flight Activity (Flightaware)

Listeners: 4 out of 2619 total

Adelaide Approach (East of Adelaide): 118.200
Adelaide Approach (East of Adelaide): 130.450
Adelaide Approach (Kangaroo Island): 123.050
Adelaide Approach (North of Adelaide): 128.600
Adelaide Approach (West of Adelaide): 124.200
Adelaide Clearance Delivery: 126.100
Adelaide Ground: 121.700
Adelaide Tower: 120.500

YPAD Gnd/Twr/App/Center (Archives)
Adelaide, South Australia, Australia

Feed Status: UP
Listen in your browser - HTML5 player(in browser, HTML5)
Click here to listen with your own player(launches your MP3 player)

YPAD 231141Z 21016G28KT 9999 FEW025 SCT031 BKN039 15/07 Q1023

YPAD Flight Activity (Flightaware)

Listeners: 4 out of 2619 total

Adelaide Approach (East of Adelaide): 118.200
Adelaide Approach (East of Adelaide): 130.450
Adelaide Approach (Kangaroo Island): 123.050
Adelaide Approach (North of Adelaide): 128.600
Adelaide Approach (West of Adelaide): 124.200
Adelaide Clearance Delivery: 126.100
Adelaide Ground: 121.700
Adelaide Tower: 120.500
Flight Watch: 135.750
Melbourne Centre: 124.300
Melbourne Centre ( East of Adelaide): 125.300
Melbourne Centre ( Pt Augusta, Pt Pirie, Whyalla): 123.900
Melbourne Centre (Mildura): 122.100
Melbourne Centre (North of Adelaide): 122.400
Melbourne Centre (Pt Lincoln): 125.900
Melbourne Centre (West of Adelaide ): 127.050

YPDN Gnd/Twr/App/Dep (Archives)
Darwin, Northern Territory, Australia

Feed Status: UP
Listen in your browser - HTML5 player(in browser, HTML5)
Click here to listen with your own player(launches your MP3 player)

YPDN 231130Z 35002KT 9999 FEW015 28/24 Q1010

YPDN Flight Activity (Flightaware)

Listeners: 4 out of 2619 total

Darwin Approach: 134.100
Darwin Arrival: 125.200
Darwin Departure: 119.550
Darwin Ground: 121.800
Darwin Tower: 133.100

YPJT Gnd/Twr (Archives)
Perth, Western Australia, Australia

Feed Status: UP
Listen in your browser - HTML5 player(in browser, HTML5)
Click here to listen with your own player(launches your MP3 player)

YPJT 231130Z AUTO 13009KT 9999 // NCD 19/03 Q1027 RF00.0/000.0

YPJT Flight Activity (Flightaware)

Listeners: 0 out of 2619 total

Jandakot Ground: 124.300
Jandakot Tower: 119.400
Jandakot Tower/CTAF: 118.100

YPJT Perth Center (Archives)
Perth, Western Australia, Australia

Feed Status: UP
Listen in your browser - HTML5 player(in browser, HTML5)
Click here to listen with your own player(launches your MP3 player)

YPJT 231130Z AUTO 13009KT 9999 // NCD 19/03 Q1027 RF00.0/000.0

YPJT Flight Activity (Flightaware)

Listeners: 0 out of 2619 total

Perth Center: 135.250

YPMQ CTAF (Archives)
Port Macquarie, New South Wales, Australia

Feed Status: UP
Listen in your browser - HTML5 player(in browser, HTML5)
Click here to listen with your own player(launches your MP3 player)

YPMQ Flight Activity (Flightaware)

Listeners: 0 out of 2619 total

Port Macquarie CTAF/Multicom: 118.100

YPPH Approach #1 (Archives)
Perth, Western Australia, Australia

Feed Status: UP
Listen in your browser - HTML5 player(in browser, HTML5)
Click here to listen with your own player(launches your MP3 player)

YPPH 231130Z 10011KT CAVOK 19/03 Q1026

YPPH Flight Activity (Flightaware)

Listeners: 1 out of 2619 total

Perth Approach: 123.600

YPPH Approach #2 (Archives)
Perth, Western Australia, Australia

Feed Status: UP
Listen in your browser - HTML5 player(in browser, HTML5)
Click here to listen with your own player(launches your MP3 player)

YPPH 231130Z 10011KT CAVOK 19/03 Q1026

YPPH Flight Activity (Flightaware)

Listeners: 1 out of 2619 total

Perth Approach: 123.600

YPPH Departure (Archives)
Perth, Western Australia, Australia

Feed Status: UP
Listen in your browser - HTML5 player(in browser, HTML5)
Click here to listen with your own player(launches your MP3 player)

YPPH 231130Z 10011KT CAVOK 19/03 Q1026

YPPH Flight Activity (Flightaware)

Listeners: 2 out of 2619 total

Perth Departure: 118.700

YPPH Ground (Archives)
Perth, Western Australia, Australia

Feed Status: UP
Listen in your browser - HTML5 player(in browser, HTML5)
Click here to listen with your own player(launches your MP3 player)

YPPH 231130Z 10011KT CAVOK 19/03 Q1026

YPPH Flight Activity (Flightaware)

Listeners: 1 out of 2619 total

Perth Ground: 121.700

YPPH Tower #1 (Archives)
Perth, Western Australia, Australia

Feed Status: UP
Listen in your browser - HTML5 player(in browser, HTML5)
Click here to listen with your own player(launches your MP3 player)

YPPH 231130Z 10011KT CAVOK 19/03 Q1026

YPPH Flight Activity (Flightaware)

Listeners: 1 out of 2619 total

Perth Tower: 127.400

YPPH Tower #2 (Archives)
Perth, Western Australia, Australia

Feed Status: UP
Listen in your browser - HTML5 player(in browser, HTML5)
Click here to listen with your own player(launches your MP3 player)

YPPH 231130Z 10011KT CAVOK 19/03 Q1026

YPPH Flight Activity (Flightaware)

Listeners: 0 out of 2619 total

Perth Tower: 127.400

YSBK ATIS (Archives)
Bankstown, New South Wales, Australia

Feed Status: UP
Listen in your browser - HTML5 player(in browser, HTML5)
Click here to listen with your own player(launches your MP3 player)

YSBK Flight Activity (Flightaware)

Listeners: 0 out of 2619 total

Bankstown Tower: 132.800

YSBK R405A VFR
Bankstown, New South Wales, Australia

Feed Status: DOWN
Offline since: 2024-04-23 06:59:40 UTC

Bankstown R405A VFR Access Lane YSBK/YSSY: 120.800

YSBK Tower (Archives)
Bankstown, New South Wales, Australia

Feed Status: UP
Listen in your browser - HTML5 player(in browser, HTML5)
Click here to listen with your own player(launches your MP3 player)

YSBK Flight Activity (Flightaware)

Listeners: 0 out of 2619 total

Bankstown ATIS: 120.900

Melbourne Center (124.1) (Archives)
Canberra, Australian Capital Territory, Australia

Feed Status: UP
Listen in your browser - HTML5 player(in browser, HTML5)
Click here to listen with your own player(launches your MP3 player)

YSCB 231130Z AUTO 00000KT 9999 // NCD 09/07 Q1020 RF00.0/000.0

YSCB Flight Activity (Flightaware)

Listeners: 0 out of 2619 total

Melbourne Center: 124.100

Melbourne Center (128.4) (Archives)
Canberra, Australian Capital Territory, Australia

Feed Status: UP
Listen in your browser - HTML5 player(in browser, HTML5)
Click here to listen with your own player(launches your MP3 player)

YSCB 231130Z AUTO 00000KT 9999 // NCD 09/07 Q1020 RF00.0/000.0

YSCB Flight Activity (Flightaware)

Listeners: 0 out of 2619 total

Melbourne Center: 128.400

YSCB App/Dep (Archives)
Canberra, Australian Capital Territory, Australia

Feed Status: UP
Listen in your browser - HTML5 player(in browser, HTML5)
Click here to listen with your own player(launches your MP3 player)

YSCB 231130Z AUTO 00000KT 9999 // NCD 09/07 Q1020 RF00.0/000.0

YSCB Flight Activity (Flightaware)

Listeners: 0 out of 2619 total

Canberra Approach/Departure (East): 124.500
Canberra Approach/Departure (West): 125.900

YSCB App/Dep (East) (Archives)
Canberra, Australian Capital Territory, Australia

Feed Status: UP
Listen in your browser - HTML5 player(in browser, HTML5)
Click here to listen with your own player(launches your MP3 player)

YSCB 231130Z AUTO 00000KT 9999 // NCD 09/07 Q1020 RF00.0/000.0

YSCB Flight Activity (Flightaware)

Listeners: 0 out of 2619 total

Canberra Approach/Departure (East): 124.500

YSCB App/Dep (West) (Archives)
Canberra, Australian Capital Territory, Australia

Feed Status: UP
Listen in your browser - HTML5 player(in browser, HTML5)
Click here to listen with your own player(launches your MP3 player)

YSCB 231130Z AUTO 00000KT 9999 // NCD 09/07 Q1020 RF00.0/000.0

YSCB Flight Activity (Flightaware)

Listeners: 0 out of 2619 total

Canberra Approach/Departure (West): 125.900

YSCB ATIS (Archives)
Canberra, Australian Capital Territory, Australia

Feed Status: UP
Listen in your browser - HTML5 player(in browser, HTML5)
Click here to listen with your own player(launches your MP3 player)

YSCB 231130Z AUTO 00000KT 9999 // NCD 09/07 Q1020 RF00.0/000.0

YSCB Flight Activity (Flightaware)

Listeners: 0 out of 2619 total

Canberra ATIS: 127.450

YSCB Tower (Archives)
Canberra, Australian Capital Territory, Australia

Feed Status: UP
Listen in your browser - HTML5 player(in browser, HTML5)
Click here to listen with your own player(launches your MP3 player)

YSCB 231130Z AUTO 00000KT 9999 // NCD 09/07 Q1020 RF00.0/000.0

YSCB Flight Activity (Flightaware)

Listeners: 0 out of 2619 total

Canberra Tower: 118.700

YSCB Twr/App/Dep (Archives)
Canberra, Australian Capital Territory, Australia

Feed Status: UP
Listen in your browser - HTML5 player(in browser, HTML5)
Click here to listen with your own player(launches your MP3 player)

YSCB 231130Z AUTO 00000KT 9999 // NCD 09/07 Q1020 RF00.0/000.0

YSCB Flight Activity (Flightaware)

Listeners: 0 out of 2619 total

Canberra Approach/Departure (East): 124.500
Canberra Approach/Departure (West): 125.900
Canberra Tower: 118.700

YSCN Tower/CTAF (Archives)
Camden, New South Wales, Australia

Feed Status: UP
Listen in your browser - HTML5 player(in browser, HTML5)
Click here to listen with your own player(launches your MP3 player)

YSCN Flight Activity (Flightaware)

Listeners: 0 out of 2619 total

Camden Tower/CTAF: 120.100

Brisbane Center (124.625/YSSY) (Archives)
Sydney, New South Wales, Australia

Feed Status: UP
Listen in your browser - HTML5 player(in browser, HTML5)
Click here to listen with your own player(launches your MP3 player)

YSSY 231130Z 01013KT CAVOK 21/16 Q1019

YSSY Flight Activity (Flightaware)

Listeners: 2 out of 2619 total

Brisbane Center: 124.625

Brisbane Center (124.95/YSSY) (Archives)
Sydney, New South Wales, Australia

Feed Status: UP
Listen in your browser - HTML5 player(in browser, HTML5)
Click here to listen with your own player(launches your MP3 player)

YSSY 231130Z 01013KT CAVOK 21/16 Q1019

YSSY Flight Activity (Flightaware)

Listeners: 2 out of 2619 total

Brisbane Center: 124.950

Brisbane Center (125.0/YSSY) (Archives)
Sydney, New South Wales, Australia

Feed Status: UP
Listen in your browser - HTML5 player(in browser, HTML5)
Click here to listen with your own player(launches your MP3 player)

YSSY 231130Z 01013KT CAVOK 21/16 Q1019

YSSY Flight Activity (Flightaware)

Listeners: 1 out of 2619 total

Brisbane Center: 125.000

Brisbane Center (128.6/YSSY) (Archives)
Sydney, New South Wales, Australia

Feed Status: UP
Listen in your browser - HTML5 player(in browser, HTML5)
Click here to listen with your own player(launches your MP3 player)

YSSY 231130Z 01013KT CAVOK 21/16 Q1019

YSSY Flight Activity (Flightaware)

Listeners: 5 out of 2619 total

Brisbane Center: 128.600

YSSY Approach (North/East) (Archives)
Sydney, New South Wales, Australia

Feed Status: UP
Listen in your browser - HTML5 player(in browser, HTML5)
Click here to listen with your own player(launches your MP3 player)

YSSY 231130Z 01013KT CAVOK 21/16 Q1019

YSSY Flight Activity (Flightaware)

Listeners: 2 out of 2619 total

Sydney Approach (North/East): 124.400

YSSY Approach (South) (Archives)
Sydney, New South Wales, Australia

Feed Status: UP
Listen in your browser - HTML5 player(in browser, HTML5)
Click here to listen with your own player(launches your MP3 player)

YSSY 231130Z 01013KT CAVOK 21/16 Q1019

YSSY Flight Activity (Flightaware)

Listeners: 2 out of 2619 total

Sydney Approach (South/West): 128.300

YSSY ATIS (Archives)
Sydney, New South Wales, Australia

Feed Status: UP
Listen in your browser - HTML5 player(in browser, HTML5)
Click here to listen with your own player(launches your MP3 player)

YSSY 231130Z 01013KT CAVOK 21/16 Q1019

YSSY Flight Activity (Flightaware)

Listeners: 1 out of 2619 total

Sydney ATIS: 118.550

YSSY Center (South/West) (Archives)
Sydney, New South Wales, Australia

Feed Status: UP
Listen in your browser - HTML5 player(in browser, HTML5)
Click here to listen with your own player(launches your MP3 player)

YSSY 231130Z 01013KT CAVOK 21/16 Q1019

YSSY Flight Activity (Flightaware)

Listeners: 2 out of 2619 total

Sydney Center: 124.550

YSSY Del/Gnd (Archives)
Sydney, New South Wales, Australia

Feed Status: UP
Listen in your browser - HTML5 player(in browser, HTML5)
Click here to listen with your own player(launches your MP3 player)

YSSY 231130Z 01013KT CAVOK 21/16 Q1019

YSSY Flight Activity (Flightaware)

Listeners: 7 out of 2619 total

Sydney Clearance Delivery: 133.800
Sydney Ground (East of Rwys 16R/34L): 121.700
Sydney Ground (West of Rwys 16R/34L): 126.500

YSSY Departure (North/East) (Archives)
Sydney, New South Wales, Australia

Feed Status: UP
Listen in your browser - HTML5 player(in browser, HTML5)
Click here to listen with your own player(launches your MP3 player)

YSSY 231130Z 01013KT CAVOK 21/16 Q1019

YSSY Flight Activity (Flightaware)

Listeners: 3 out of 2619 total

Sydney Departure (North/East): 123.000

YSSY Departure (South/West) (Archives)
Sydney, New South Wales, Australia

Feed Status: UP
Listen in your browser - HTML5 player(in browser, HTML5)
Click here to listen with your own player(launches your MP3 player)

YSSY 231130Z 01013KT CAVOK 21/16 Q1019

YSSY Flight Activity (Flightaware)

Listeners: 3 out of 2619 total

Sydney Departure (Rte S, W and NW): 129.700

YSSY Director (East) (Archives)
Sydney, New South Wales, Australia

Feed Status: UP
Listen in your browser - HTML5 player(in browser, HTML5)
Click here to listen with your own player(launches your MP3 player)

YSSY 231130Z 01013KT CAVOK 21/16 Q1019

YSSY Flight Activity (Flightaware)

Listeners: 1 out of 2619 total

Sydney Director (East): 125.300

YSSY Tower (Both) (Archives)
Sydney, New South Wales, Australia

Feed Status: UP
Listen in your browser - HTML5 player(in browser, HTML5)
Click here to listen with your own player(launches your MP3 player)

YSSY 231130Z 01013KT CAVOK 21/16 Q1019

YSSY Flight Activity (Flightaware)

Listeners: 10 out of 2619 total

Sydney Tower (Rwy 16L/34R): 124.700
Sydney Tower (Rwy 16R/34L, Rwy 07/25): 120.500

YSSY Tower (Rwy 16L/34R) (Archives)
Sydney, New South Wales, Australia

Feed Status: UP
Listen in your browser - HTML5 player(in browser, HTML5)
Click here to listen with your own player(launches your MP3 player)

YSSY 231130Z 01013KT CAVOK 21/16 Q1019

YSSY Flight Activity (Flightaware)

Listeners: 1 out of 2619 total

Sydney Tower (Rwy 16L/34R): 124.700

YSSY Tower (Rwys 16R/34L,7/25) (Archives)
Sydney, New South Wales, Australia

Feed Status: UP
Listen in your browser - HTML5 player(in browser, HTML5)
Click here to listen with your own player(launches your MP3 player)

YSSY 231130Z 01013KT CAVOK 21/16 Q1019

YSSY Flight Activity (Flightaware)

Listeners: 3 out of 2619 total

Sydney Tower (Rwy 16R/34L, Rwy 07/25): 120.500

YSTW Gnd/Twr/Center (Archives)
Tamworth, New South Wales, Australia

Feed Status: UP
Listen in your browser - HTML5 player(in browser, HTML5)
Click here to listen with your own player(launches your MP3 player)

YSTW 231130Z AUTO 25004KT 190V280 9999 // OVC068 17/14 Q1021

YSTW Flight Activity (Flightaware)

Listeners: 0 out of 2619 total

Brisbane Center: 127.100
Tamworth Ground: 121.900
Tamworth Tower: 118.250
Tamworth Tower: 119.400

YWBN CTAF/Center (Archives)
Wedderburn, New South Wales, Australia

Feed Status: UP
Listen in your browser - HTML5 player(in browser, HTML5)
Click here to listen with your own player(launches your MP3 player)

YWBN Flight Activity (Flightaware)

Listeners: 0 out of 2619 total

Sydney Center: 124.550
Wedderburn CTAF/Multicom: 122.550

YWYY CTAF/Center (Archives)
Burnie, Tasmania, Australia

Feed Status: UP
Listen in your browser - HTML5 player(in browser, HTML5)
Click here to listen with your own player(launches your MP3 player)

METAR NOT AVAILABLE

YWYY Flight Activity (Flightaware)

Listeners: 0 out of 2619 total

General multicom freq for undesignated ALAs or landing strips: 126.700
Georgetown CTAF (YGTO): 127.30
King Island CTAF (YKII): 126.850
Melbourne Centre (DEVONPORT - Covers Devonport): 120.700
Melbourne Centre (KING ISLAND): 123.900
Melbourne Centre (MT READ - Covers West Coast of Tasmania): 123.950
Melbourne Centre (TABLE CAPE - Covers North West Coast of Tasmania): 122.600
Smithton CTAF (SIO/YSMI): 119.100
Strahan/Queenstown CTAF (YSRN): 124.200
Wynyard CTAF (YWYY/BWT) - Devonport CTAF (DPO/YDPO): 126.900